Location: Greenwich
(51.4790°N, 0.0090°E)
Time: 19:24:52
(UTC+01:00)

Tiros 1 despin weight - Visible Passes

Search period start: 12 June 2025 00:00
Search period end: 22 June 2025 00:00
Orbit: 563 x 601 km, 48.2° (Epoch: 11 June)

Date Brightness Start Highest point End Pass type
(mag) Time Alt. Az. Time Alt. Az. Time Alt. Az.
12 Jun ? 22:01:27 10° W 22:05:36 49° S 22:09:46 10° ESE visible
12 Jun ? 23:42:21 10° W 23:45:47 23° SSW 23:47:02 20° S visible
13 Jun ? 22:06:12 10° W 22:10:15 42° SSW 22:14:21 10° SE visible
13 Jun ? 23:47:28 10° WSW 23:50:18 17° SW 23:51:09 16° SSW visible
14 Jun ? 22:11:00 10° W 22:14:53 35° SSW 22:18:49 10° SE visible
14 Jun ? 23:53:03 10° WSW 23:54:46 12° SW 23:55:18 12° SSW visible
15 Jun ? 22:15:50 10° W 22:19:28 27° SSW 22:23:08 10° SSE visible
16 Jun ? 22:20:48 10° W 22:24:00 21° SSW 22:27:14 10° SSE visible
17 Jun ? 22:26:01 10° WSW 22:28:29 15° SW 22:30:56 10° S visible
18 Jun ? 22:32:26 10° SW 22:32:54 10° SW 22:33:21 10° SW visible
